Time,TemperatureF,DewpointF,PressureIn,WindDirection,WindDirectionDegrees,WindSpeedMPH,WindSpeedGustMPH,Humidity,HourlyPrecipIn,Conditions,Clouds,dailyrainin,SolarRadiationWatts/m^2,SoftwareType,DateUTC
2013-11-15 00:01:00,34.4,22.7,30.18,SSW,204,0.0,0.0,62,0.00,,CLR,0.00,0.00,VWS V14.01,2013-11-15 05:01:00,
2013-11-15 00:02:00,34.4,22.7,30.18,SSW,204,0.0,0.0,62,0.00,,CLR,0.00,0.00,VWS V14.01,2013-11-15 05:02:00,
2013-11-15 00:08:00,34.0,22.4,30.19,SSW,204,0.0,0.0,62,0.00,,CLR,0.00,0.00,VWS V14.01,2013-11-15 05:08:00,
2013-11-15 00:13:00,33.7,22.5,30.19,SSW,204,0.0,0.0,63,0.00,,CLR,0.00,0.00,VWS V14.01,2013-11-15 05:13:00,
2013-11-15 00:18:00,33.4,22.9,30.18,SSW,203,0.0,0.0,65,0.00,,CLR,0.00,0.00,VWS V14.01,2013-11-15 05:18:00,
2013-11-15 00:23:00,33.1,23.7,30.19,SSW,204,0.0,0.0,68,0.00,,CLR,0.00,0.00,VWS V14.01,2013-11-15 05:23:00,
2013-11-15 00:28:00,32.8,23.8,30.19,SSW,204,0.0,0.0,69,0.00,,CLR,0.00,0.00,VWS V14.01,2013-11-15 05:28:00,
2013-11-15 00:33:00,32.6,24.2,30.19,SSW,204,0.0,0.0,71,0.00,,CLR,0.00,0.00,VWS V14.01,2013-11-15 05:33:00,
2013-11-15 00:38:00,32.5,24.5,30.19,SSW,204,0.0,0.0,72,0.00,,CLR,0.00,0.00,VWS V14.01,2013-11-15 05:38:00,
2013-11-15 00:44:00,32.5,24.5,30.18,SSW,204,0.0,0.0,72,0.00,,CLR,0.00,0.00,VWS V14.01,2013-11-15 05:44:00,
2013-11-15 00:49:00,32.5,24.2,30.18,SSW,204,0.0,0.0,71,0.00,,CLR,0.00,0.00,VWS V14.01,2013-11-15 05:49:00,
2013-11-15 00:54:00,32.4,24.1,30.18,SSW,203,0.0,0.0,71,0.00,,CLR,0.00,0.00,VWS V14.01,2013-11-15 05:54:00,
2013-11-15 00:59:00,32.3,24.0,30.18,SSW,204,0.0,0.0,71,0.00,,CLR,0.00,0.00,VWS V14.01,2013-11-15 05:59:00,
2013-11-15 01:04:00,32.2,23.5,30.18,SSW,204,0.0,0.0,70,0.00,,CLR,0.00,0.00,VWS V14.01,2013-11-15 06:04:00,
2013-11-15 01:10:00,32.0,23.3,30.18,SSW,203,0.0,0.0,70,0.00,,CLR,0.00,0.00,VWS V14.01,2013-11-15 06:10:00,
2013-11-15 01:15:00,31.7,23.0,30.18,SSW,204,0.0,0.0,70,0.00,,CLR,0.00,0.00,VWS V14.01,2013-11-15 06:15:00,
2013-11-15 01:20:00,31.5,22.9,30.18,SSW,204,0.0,0.0,70,0.00,,CLR,0.00,0.00,VWS V14.01,2013-11-15 06:20:00,
2013-11-15 01:25:00,31.3,23.0,30.18,SSW,203,0.0,0.0,71,0.00,,CLR,0.00,0.00,VWS V14.01,2013-11-15 06:25:00,
2013-11-15 01:30:00,31.1,22.8,30.18,SSW,204,0.0,0.0,71,0.00,,CLR,0.00,0.00,VWS V14.01,2013-11-15 06:30:00,
2013-11-15 01:35:00,31.0,23.0,30.19,SSW,203,0.0,0.0,72,0.00,,CLR,0.00,0.00,VWS V14.01,2013-11-15 06:35:00,
2013-11-15 01:40:00,30.9,23.3,30.19,SSW,204,0.0,0.0,73,0.00,,CLR,0.00,0.00,VWS V14.01,2013-11-15 06:40:00,
2013-11-15 01:45:00,30.8,23.2,30.19,SSW,203,0.0,0.0,73,0.00,,CLR,0.00,0.00,VWS V14.01,2013-11-15 06:45:00,
2013-11-15 01:50:00,30.7,23.4,30.19,SSW,203,0.0,0.0,74,0.00,,CLR,0.00,0.00,VWS V14.01,2013-11-15 06:50:00,
2013-11-15 01:56:00,30.6,23.6,30.19,SSW,203,0.0,0.0,75,0.00,,CLR,0.00,0.00,VWS V14.01,2013-11-15 06:56:00,
2013-11-15 02:01:00,30.6,24.0,30.19,SSW,203,0.0,0.0,76,0.00,,CLR,0.00,0.00,VWS V14.01,2013-11-15 07:01:00,
2013-11-15 02:06:00,30.5,24.2,30.19,SSW,204,0.0,0.0,77,0.00,,CLR,0.00,0.00,VWS V14.01,2013-11-15 07:06:00,
2013-11-15 02:11:00,30.5,24.5,30.20,SSW,203,0.0,0.0,78,0.00,,CLR,0.00,0.00,VWS V14.01,2013-11-15 07:11:00,
2013-11-15 02:16:00,30.4,24.4,30.19,SSW,204,0.0,0.0,78,0.00,,CLR,0.00,0.00,VWS V14.01,2013-11-15 07:16:00,
2013-11-15 02:21:00,30.3,24.0,30.20,SSW,203,0.0,0.0,77,0.00,,CLR,0.00,0.00,VWS V14.01,2013-11-15 07:21:00,
2013-11-15 02:26:00,30.2,23.9,30.19,SSW,204,0.0,0.0,77,0.00,,CLR,0.00,0.00,VWS V14.01,2013-11-15 07:26:00,
2013-11-15 02:32:00,30.0,23.7,30.20,SSW,204,0.0,0.0,77,0.00,,CLR,0.00,0.00,VWS V14.01,2013-11-15 07:32:00,
2013-11-15 02:37:00,29.9,23.6,30.19,SSW,204,0.0,0.0,77,0.00,,CLR,0.00,0.00,VWS V14.01,2013-11-15 07:37:00,
2013-11-15 02:42:00,29.7,23.4,30.19,SSW,203,0.0,0.0,77,0.00,,CLR,0.00,0.00,VWS V14.01,2013-11-15 07:42:00,
2013-11-15 02:47:00,29.5,23.2,30.19,SSW,203,0.0,0.0,77,0.00,,CLR,0.00,0.00,VWS V14.01,2013-11-15 07:47:00,
2013-11-15 02:52:00,29.4,23.1,30.19,SSW,204,0.0,0.0,77,0.00,,CLR,0.00,0.00,VWS V14.01,2013-11-15 07:52:00,
2013-11-15 02:57:00,29.2,23.2,30.18,SSW,203,0.0,0.0,78,0.00,,CLR,0.00,0.00,VWS V14.01,2013-11-15 07:57:00,
2013-11-15 03:03:00,29.0,23.0,30.18,SSW,204,0.0,0.0,78,0.00,,CLR,0.00,0.00,VWS V14.01,2013-11-15 08:03:00,
2013-11-15 03:08:00,28.8,22.8,30.18,SSW,204,0.0,0.0,78,0.00,,CLR,0.00,0.00,VWS V14.01,2013-11-15 08:08:00,
2013-11-15 03:13:00,28.7,22.7,30.18,SSW,204,0.0,0.0,78,0.00,,CLR,0.00,0.00,VWS V14.01,2013-11-15 08:13:00,
2013-11-15 03:18:00,28.6,22.9,30.19,SSW,204,0.0,0.0,79,0.00,,CLR,0.00,0.00,VWS V14.01,2013-11-15 08:18:00,
2013-11-15 03:23:00,28.5,23.1,30.19,SSW,204,0.0,0.0,80,0.00,,CLR,0.00,0.00,VWS V14.01,2013-11-15 08:23:00,
2013-11-15 03:28:00,28.4,23.0,30.19,SSW,204,0.0,0.0,80,0.00,,CLR,0.00,0.00,VWS V14.01,2013-11-15 08:28:00,
2013-11-15 03:33:00,28.3,23.2,30.19,SSW,204,0.0,0.0,81,0.00,,CLR,0.00,0.00,VWS V14.01,2013-11-15 08:33:00,
2013-11-15 03:38:00,28.3,23.2,30.19,SSW,203,0.0,0.0,81,0.00,,CLR,0.00,0.00,VWS V14.01,2013-11-15 08:38:00,
2013-11-15 03:43:00,28.5,23.4,30.19,SSW,204,0.0,0.0,81,0.00,,CLR,0.00,0.00,VWS V14.01,2013-11-15 08:43:00,
2013-11-15 03:48:00,28.6,23.5,30.19,SSW,203,0.0,0.0,81,0.00,,CLR,0.00,0.00,VWS V14.01,2013-11-15 08:48:00,
2013-11-15 03:54:00,28.7,23.6,30.20,SSW,204,0.0,0.0,81,0.00,,CLR,0.00,0.00,VWS V14.01,2013-11-15 08:54:00,
2013-11-15 03:59:00,28.7,23.6,30.20,SSW,204,0.0,0.0,81,0.00,,CLR,0.00,0.00,VWS V14.01,2013-11-15 08:59:00,
2013-11-15 04:04:00,28.6,23.5,30.19,SSW,203,0.0,0.0,81,0.00,,CLR,0.00,0.00,VWS V14.01,2013-11-15 09:04:00,
2013-11-15 04:09:00,28.5,23.4,30.19,SSW,204,0.0,0.0,81,0.00,,CLR,0.00,0.00,VWS V14.01,2013-11-15 09:09:00,
2013-11-15 04:14:00,28.4,23.3,30.20,SSW,204,0.0,0.0,81,0.00,,CLR,0.00,0.00,VWS V14.01,2013-11-15 09:14:00,
2013-11-15 04:19:00,28.3,22.9,30.20,SSW,204,0.0,0.0,80,0.00,,CLR,0.00,0.00,VWS V14.01,2013-11-15 09:19:00,
2013-11-15 04:24:00,28.2,23.1,30.19,SSW,204,0.0,0.0,81,0.00,,CLR,0.00,0.00,VWS V14.01,2013-11-15 09:24:00,
2013-11-15 04:29:00,28.1,23.0,30.20,SSW,204,0.0,0.0,81,0.00,,CLR,0.00,0.00,VWS V14.01,2013-11-15 09:29:00,
2013-11-15 04:34:00,27.9,22.8,30.19,SSW,204,0.0,0.0,81,0.00,,CLR,0.00,0.00,VWS V14.01,2013-11-15 09:34:00,
2013-11-15 04:39:00,27.8,22.7,30.20,SSW,203,0.0,0.0,81,0.00,,CLR,0.00,0.00,VWS V14.01,2013-11-15 09:39:00,
2013-11-15 04:44:00,27.7,22.6,30.19,SSW,203,0.0,0.0,81,0.00,,CLR,0.00,0.00,VWS V14.01,2013-11-15 09:44:00,
2013-11-15 04:49:00,27.6,22.5,30.20,SSW,204,0.0,0.0,81,0.00,,CLR,0.00,0.00,VWS V14.01,2013-11-15 09:49:00,
2013-11-15 04:55:00,27.6,22.8,30.20,SSW,204,0.0,0.0,82,0.00,,CLR,0.00,0.00,VWS V14.01,2013-11-15 09:55:00,
2013-11-15 05:00:00,27.5,22.7,30.20,SSW,203,0.0,0.0,82,0.00,,CLR,0.00,0.00,VWS V14.01,2013-11-15 10:00:00,
2013-11-15 05:05:00,27.4,22.6,30.20,SSW,204,0.0,0.0,82,0.00,,CLR,0.00,0.00,VWS V14.01,2013-11-15 10:05:00,
2013-11-15 05:10:00,27.4,22.6,30.21,SSW,203,0.0,0.0,82,0.00,,CLR,0.00,0.00,VWS V14.01,2013-11-15 10:10:00,
2013-11-15 05:15:00,27.3,22.5,30.21,SSW,204,0.0,0.0,82,0.00,,CLR,0.00,0.00,VWS V14.01,2013-11-15 10:15:00,
2013-11-15 05:20:00,27.1,22.4,30.21,SSW,203,0.0,0.0,82,0.00,,CLR,0.00,0.00,VWS V14.01,2013-11-15 10:20:00,
2013-11-15 05:25:00,27.0,22.2,30.21,SSW,204,0.0,0.0,82,0.00,,CLR,0.00,0.00,VWS V14.01,2013-11-15 10:25:00,
2013-11-15 05:30:00,26.9,22.4,30.21,SSW,204,0.0,0.0,83,0.00,,CLR,0.00,0.00,VWS V14.01,2013-11-15 10:30:00,
2013-11-15 05:35:00,26.9,22.4,30.21,SSW,203,0.0,0.0,83,0.00,,CLR,0.00,0.00,VWS V14.01,2013-11-15 10:35:00,
2013-11-15 05:40:00,26.9,22.4,30.20,SSW,204,0.0,0.0,83,0.00,,CLR,0.00,0.00,VWS V14.01,2013-11-15 10:40:00,
2013-11-15 05:45:00,26.8,22.3,30.20,SSW,204,0.0,0.0,83,0.00,,CLR,0.00,0.00,VWS V14.01,2013-11-15 10:45:00,
2013-11-15 05:51:00,26.8,22.3,30.21,SSW,203,0.0,0.0,83,0.00,,CLR,0.00,0.00,VWS V14.01,2013-11-15 10:51:00,
2013-11-15 05:56:00,26.8,22.3,30.21,SSW,203,0.0,0.0,83,0.00,,CLR,0.00,0.00,VWS V14.01,2013-11-15 10:56:00,
2013-11-15 06:01:00,26.7,22.2,30.21,SSW,204,0.0,0.0,83,0.00,,CLR,0.00,0.00,VWS V14.01,2013-11-15 11:01:00,
2013-11-15 06:06:00,26.6,22.1,30.21,SSW,204,0.0,0.0,83,0.00,,CLR,0.00,0.00,VWS V14.01,2013-11-15 11:06:00,
2013-11-15 06:11:00,26.6,22.1,30.21,SSW,203,0.0,0.0,83,0.00,,CLR,0.00,0.00,VWS V14.01,2013-11-15 11:11:00,
2013-11-15 06:16:00,26.5,22.0,30.22,SSW,204,0.0,0.0,83,0.00,,CLR,0.00,0.00,VWS V14.01,2013-11-15 11:16:00,
2013-11-15 06:21:00,26.4,22.0,30.22,SSW,204,0.0,0.0,83,0.00,,CLR,0.00,0.00,VWS V14.01,2013-11-15 11:21:00,
2013-11-15 06:26:00,26.3,21.9,30.22,SSW,204,0.0,0.0,83,0.00,,CLR,0.00,0.00,VWS V14.01,2013-11-15 11:26:00,
2013-11-15 06:31:00,26.2,21.8,30.22,SSW,204,0.0,0.0,83,0.00,,CLR,0.00,0.00,VWS V14.01,2013-11-15 11:31:00,
2013-11-15 06:36:00,26.2,21.8,30.23,SSW,204,0.0,0.0,83,0.00,,CLR,0.00,0.00,VWS V14.01,2013-11-15 11:36:00,
2013-11-15 06:41:00,26.1,21.9,30.23,SSW,204,0.0,0.0,84,0.00,,CLR,0.00,0.00,VWS V14.01,2013-11-15 11:41:00,
2013-11-15 06:47:00,26.1,21.9,30.23,SSW,204,0.0,0.0,84,0.00,,CLR,0.00,0.00,VWS V14.01,2013-11-15 11:47:00,
2013-11-15 06:52:00,26.1,21.9,30.23,SSW,204,0.0,0.0,84,0.00,,CLR,0.00,0.00,VWS V14.01,2013-11-15 11:52:00,
2013-11-15 06:57:00,26.1,22.2,30.23,SSW,204,0.0,0.0,85,0.00,,CLR,0.00,0.00,VWS V14.01,2013-11-15 11:57:00,
2013-11-15 07:02:00,26.0,22.1,30.23,SSW,204,0.0,0.0,85,0.00,,CLR,0.00,9.00,VWS V14.01,2013-11-15 12:02:00,
2013-11-15 07:07:00,26.1,22.2,30.24,SSW,203,0.0,0.0,85,0.00,,CLR,0.00,14.00,VWS V14.01,2013-11-15 12:07:00,
2013-11-15 07:12:00,26.0,22.1,30.24,SSW,204,0.0,0.0,85,0.00,,CLR,0.00,21.00,VWS V14.01,2013-11-15 12:12:00,
2013-11-15 07:17:00,26.0,22.4,30.24,SSW,204,0.0,0.0,86,0.00,,CLR,0.00,25.00,VWS V14.01,2013-11-15 12:17:00,
2013-11-15 07:22:00,26.1,22.5,30.24,SSW,203,0.0,0.0,86,0.00,,CLR,0.00,28.00,VWS V14.01,2013-11-15 12:22:00,
2013-11-15 07:27:00,26.1,22.8,30.24,SSW,204,0.0,0.0,87,0.00,,CLR,0.00,33.00,VWS V14.01,2013-11-15 12:27:00,
2013-11-15 07:32:00,26.2,22.6,30.24,SSW,204,0.0,0.0,86,0.00,,CLR,0.00,42.00,VWS V14.01,2013-11-15 12:32:00,
2013-11-15 07:37:00,26.2,22.9,30.24,SSW,204,0.0,0.0,87,0.00,,CLR,0.00,46.00,VWS V14.01,2013-11-15 12:37:00,
2013-11-15 07:43:00,26.2,22.9,30.24,SSW,204,0.0,0.0,87,0.00,,CLR,0.00,53.00,VWS V14.01,2013-11-15 12:43:00,
2013-11-15 07:48:00,26.4,23.1,30.24,SSW,204,0.0,0.0,87,0.00,,CLR,0.00,60.00,VWS V14.01,2013-11-15 12:48:00,
2013-11-15 07:53:00,26.5,23.2,30.24,SSW,203,0.0,0.0,87,0.00,,CLR,0.00,63.00,VWS V14.01,2013-11-15 12:53:00,
2013-11-15 07:58:00,26.7,23.6,30.25,SSW,203,0.0,0.0,88,0.00,,CLR,0.00,69.00,VWS V14.01,2013-11-15 12:58:00,
2013-11-15 08:03:00,26.9,23.8,30.25,SSW,203,0.0,0.0,88,0.00,,CLR,0.00,83.00,VWS V14.01,2013-11-15 13:03:00,
2013-11-15 08:08:00,27.2,24.1,30.25,SSW,203,0.0,0.0,88,0.00,,CLR,0.00,84.00,VWS V14.01,2013-11-15 13:08:00,
2013-11-15 08:13:00,27.5,24.4,30.25,SSW,204,0.0,0.0,88,0.00,,CLR,0.00,90.00,VWS V14.01,2013-11-15 13:13:00,
2013-11-15 08:18:00,28.4,25.6,30.24,SSW,204,0.0,0.0,89,0.00,,CLR,0.00,107.00,VWS V14.01,2013-11-15 13:18:00,
2013-11-15 08:23:00,29.6,26.8,30.24,SSW,204,0.0,0.0,89,0.00,,CLR,0.00,118.00,VWS V14.01,2013-11-15 13:23:00,
2013-11-15 08:28:00,30.4,27.3,30.24,SSW,204,0.0,0.0,88,0.00,,CLR,0.00,141.00,VWS V14.01,2013-11-15 13:28:00,
2013-11-15 08:33:00,31.1,27.7,30.24,SSW,204,0.0,0.0,87,0.00,,CLR,0.00,165.00,VWS V14.01,2013-11-15 13:33:00,
2013-11-15 08:39:00,32.2,28.8,30.24,SSW,203,0.0,0.0,87,0.00,,CLR,0.00,176.00,VWS V14.01,2013-11-15 13:39:00,
2013-11-15 08:44:00,33.0,28.7,30.24,SSW,204,0.0,0.0,84,0.00,,CLR,0.00,146.00,VWS V14.01,2013-11-15 13:44:00,
2013-11-15 08:49:00,33.9,29.0,30.24,SSW,204,0.0,0.0,82,0.00,,CLR,0.00,141.00,VWS V14.01,2013-11-15 13:49:00,
2013-11-15 08:54:00,34.6,29.4,30.25,SSW,204,0.0,0.0,81,0.00,,CLR,0.00,148.00,VWS V14.01,2013-11-15 13:54:00,
2013-11-15 08:59:00,35.1,29.6,30.25,SSW,204,0.0,0.0,80,0.00,,CLR,0.00,155.00,VWS V14.01,2013-11-15 13:59:00,
2013-11-15 09:04:00,35.3,29.8,30.25,SSW,203,0.0,0.0,80,0.00,,CLR,0.00,148.00,VWS V14.01,2013-11-15 14:04:00,
2013-11-15 09:09:00,35.6,29.7,30.25,SSW,204,0.0,0.0,79,0.00,,CLR,0.00,153.00,VWS V14.01,2013-11-15 14:09:00,
2013-11-15 09:14:00,36.1,30.2,30.25,SSW,204,0.0,0.0,79,0.00,,CLR,0.00,185.00,VWS V14.01,2013-11-15 14:14:00,
2013-11-15 09:19:00,36.7,30.5,30.25,SSW,204,0.0,0.0,78,0.00,,CLR,0.00,165.00,VWS V14.01,2013-11-15 14:19:00,
2013-11-15 09:24:00,37.2,29.7,30.25,SSW,203,0.0,0.0,74,0.00,,CLR,0.00,172.00,VWS V14.01,2013-11-15 14:24:00,
2013-11-15 09:29:00,37.6,29.4,30.25,SSW,204,0.0,0.0,72,0.00,,CLR,0.00,188.00,VWS V14.01,2013-11-15 14:29:00,
2013-11-15 09:34:00,38.0,29.1,30.25,SSW,204,0.0,0.0,70,0.00,,CLR,0.00,193.00,VWS V14.01,2013-11-15 14:34:00,
2013-11-15 09:39:00,38.6,29.3,30.25,SSW,203,0.0,1.0,69,0.00,,CLR,0.00,227.00,VWS V14.01,2013-11-15 14:39:00,
2013-11-15 09:44:00,39.3,29.3,30.25,SSW,204,1.0,2.0,67,0.00,,CLR,0.00,292.00,VWS V14.01,2013-11-15 14:44:00,
2013-11-15 09:49:00,40.2,29.8,30.25,SSW,204,0.0,1.0,66,0.00,,CLR,0.00,371.00,VWS V14.01,2013-11-15 14:49:00,
2013-11-15 09:55:00,41.1,29.5,30.25,SSW,204,0.0,0.0,63,0.00,,CLR,0.00,378.00,VWS V14.01,2013-11-15 14:55:00,
2013-11-15 10:00:00,41.8,29.8,30.25,SSW,211,2.0,6.0,62,0.00,,CLR,0.00,251.00,VWS V14.01,2013-11-15 15:00:00,
2013-11-15 10:05:00,42.0,29.5,30.25,SSW,210,0.0,2.0,61,0.00,,CLR,0.00,229.00,VWS V14.01,2013-11-15 15:05:00,
2013-11-15 10:10:00,42.2,29.3,30.25,SSW,210,1.0,1.0,60,0.00,,CLR,0.00,248.00,VWS V14.01,2013-11-15 15:10:00,
2013-11-15 10:15:00,42.4,29.5,30.26,SSW,209,0.0,1.0,60,0.00,,CLR,0.00,257.00,VWS V14.01,2013-11-15 15:15:00,
2013-11-15 10:20:00,42.5,30.4,30.25,SSW,198,2.0,3.0,62,0.00,,CLR,0.00,255.00,VWS V14.01,2013-11-15 15:20:00,
2013-11-15 10:25:00,42.8,31.1,30.25,SSW,200,4.0,5.0,63,0.00,,CLR,0.00,234.00,VWS V14.01,2013-11-15 15:25:00,
2013-11-15 10:30:00,43.2,31.9,30.25,SSW,209,0.0,5.0,64,0.00,,CLR,0.00,246.00,VWS V14.01,2013-11-15 15:30:00,
2013-11-15 10:35:00,43.8,32.8,30.25,SSW,209,0.0,2.0,65,0.00,,CLR,0.00,283.00,VWS V14.01,2013-11-15 15:35:00,
2013-11-15 10:40:00,44.6,32.4,30.25,SSW,211,2.0,5.0,62,0.00,,CLR,0.00,285.00,VWS V14.01,2013-11-15 15:40:00,
2013-11-15 10:45:00,45.4,32.8,30.25,SSW,212,1.0,1.0,61,0.00,,CLR,0.00,290.00,VWS V14.01,2013-11-15 15:45:00,
2013-11-15 10:51:00,46.1,32.2,30.24,South,181,4.0,7.0,58,0.00,,CLR,0.00,253.00,VWS V14.01,2013-11-15 15:51:00,
2013-11-15 10:56:00,46.5,31.2,30.24,SSW,205,0.0,4.0,55,0.00,,CLR,0.00,253.00,VWS V14.01,2013-11-15 15:56:00,
2013-11-15 11:01:00,46.9,32.0,30.23,SSE,161,3.0,3.0,56,0.00,,CLR,0.00,229.00,VWS V14.01,2013-11-15 16:01:00,
2013-11-15 11:06:00,47.4,31.6,30.23,SW,221,0.0,3.0,54,0.00,,CLR,0.00,250.00,VWS V14.01,2013-11-15 16:06:00,
2013-11-15 11:11:00,47.9,31.1,30.23,SSW,199,0.0,3.0,52,0.00,,CLR,0.00,295.00,VWS V14.01,2013-11-15 16:11:00,
2013-11-15 11:16:00,48.7,32.3,30.22,SSW,209,0.0,2.0,53,0.00,,CLR,0.00,302.00,VWS V14.01,2013-11-15 16:16:00,
2013-11-15 11:21:00,49.5,31.6,30.22,SSW,209,0.0,3.0,50,0.00,,CLR,0.00,304.00,VWS V14.01,2013-11-15 16:21:00,
2013-11-15 11:26:00,50.1,31.7,30.23,SSW,211,0.0,2.0,49,0.00,,CLR,0.00,306.00,VWS V14.01,2013-11-15 16:26:00,
2013-11-15 11:31:00,50.8,32.3,30.22,SSW,211,0.0,0.0,49,0.00,,CLR,0.00,297.00,VWS V14.01,2013-11-15 16:31:00,
2013-11-15 11:36:00,51.2,31.7,30.22,SW,231,4.0,6.0,47,0.00,,CLR,0.00,295.00,VWS V14.01,2013-11-15 16:36:00,
2013-11-15 11:42:00,51.4,31.3,30.21,SSE,149,1.0,3.0,46,0.00,,CLR,0.00,292.00,VWS V14.01,2013-11-15 16:42:00,
2013-11-15 11:47:00,51.8,31.1,30.21,SSW,198,0.0,2.0,45,0.00,,CLR,0.00,257.00,VWS V14.01,2013-11-15 16:47:00,
2013-11-15 11:52:00,52.2,30.4,30.20,SSE,158,0.0,3.0,43,0.00,,CLR,0.00,325.00,VWS V14.01,2013-11-15 16:52:00,
2013-11-15 11:57:00,52.7,31.4,30.20,SSW,194,3.0,3.0,44,0.00,,CLR,0.00,454.00,VWS V14.01,2013-11-15 16:57:00,
2013-11-15 12:02:00,53.3,32.0,30.20,South,171,0.0,4.0,44,0.00,,CLR,0.00,506.00,VWS V14.01,2013-11-15 17:02:00,
2013-11-15 12:07:00,53.8,31.3,30.20,South,178,0.0,4.0,42,0.00,,CLR,0.00,466.00,VWS V14.01,2013-11-15 17:07:00,
2013-11-15 12:12:00,54.2,31.0,30.20,SSW,209,0.0,5.0,41,0.00,,CLR,0.00,496.00,VWS V14.01,2013-11-15 17:12:00,
2013-11-15 12:17:00,54.6,31.4,30.20,SSW,207,0.0,3.0,41,0.00,,CLR,0.00,304.00,VWS V14.01,2013-11-15 17:17:00,
2013-11-15 12:22:00,55.1,33.6,30.19,SSW,210,1.0,2.0,44,0.00,,CLR,0.00,513.00,VWS V14.01,2013-11-15 17:22:00,
2013-11-15 12:27:00,55.5,30.3,30.19,WSW,243,0.0,2.0,38,0.00,,CLR,0.00,489.00,VWS V14.01,2013-11-15 17:27:00,
2013-11-15 12:33:00,56.6,33.2,30.19,WSW,244,0.0,2.0,41,0.00,,CLR,0.00,559.00,VWS V14.01,2013-11-15 17:33:00,
2013-11-15 12:38:00,57.5,32.1,30.19,SSE,161,2.0,2.0,38,0.00,,CLR,0.00,598.00,VWS V14.01,2013-11-15 17:38:00,
2013-11-15 12:43:00,57.8,31.7,30.18,SSW,200,0.0,3.0,37,0.00,,CLR,0.00,529.00,VWS V14.01,2013-11-15 17:43:00,
2013-11-15 12:48:00,58.4,29.4,30.18,SSW,196,0.0,4.0,33,0.00,,CLR,0.00,522.00,VWS V14.01,2013-11-15 17:48:00,
2013-11-15 12:53:00,58.4,29.4,30.18,SSW,211,0.0,2.0,33,0.00,,CLR,0.00,540.00,VWS V14.01,2013-11-15 17:53:00,
2013-11-15 12:58:00,58.7,29.7,30.17,SSW,211,0.0,1.0,33,0.00,,CLR,0.00,527.00,VWS V14.01,2013-11-15 17:58:00,
2013-11-15 13:03:00,59.0,27.6,30.17,WSW,249,0.0,4.0,30,0.00,,CLR,0.00,547.00,VWS V14.01,2013-11-15 18:03:00,
2013-11-15 13:08:00,59.0,27.6,30.16,WNW,301,0.0,2.0,30,0.00,,CLR,0.00,353.00,VWS V14.01,2013-11-15 18:08:00,
2013-11-15 13:14:00,59.0,26.8,30.16,West,275,0.0,3.0,29,0.00,,CLR,0.00,281.00,VWS V14.01,2013-11-15 18:14:00,
2013-11-15 13:19:00,59.0,26.8,30.16,SSW,195,1.0,3.0,29,0.00,,CLR,0.00,320.00,VWS V14.01,2013-11-15 18:19:00,
2013-11-15 13:24:00,59.0,26.8,30.16,SW,225,0.0,3.0,29,0.00,,CLR,0.00,250.00,VWS V14.01,2013-11-15 18:24:00,
2013-11-15 13:29:00,59.0,27.6,30.16,SSW,200,3.0,4.0,30,0.00,,CLR,0.00,455.00,VWS V14.01,2013-11-15 18:29:00,
2013-11-15 13:34:00,59.3,27.1,30.16,SSW,211,5.0,5.0,29,0.00,,CLR,0.00,478.00,VWS V14.01,2013-11-15 18:34:00,
2013-11-15 13:39:00,59.6,27.3,30.16,SW,221,1.0,5.0,29,0.00,,CLR,0.00,476.00,VWS V14.01,2013-11-15 18:39:00,
2013-11-15 13:44:00,59.8,27.5,30.16,SW,223,2.0,4.0,29,0.00,,CLR,0.00,457.00,VWS V14.01,2013-11-15 18:44:00,
2013-11-15 13:49:00,59.9,25.9,30.16,NW,305,0.0,5.0,27,0.00,,CLR,0.00,457.00,VWS V14.01,2013-11-15 18:49:00,
2013-11-15 13:54:00,60.0,28.5,30.17,South,186,0.0,5.0,30,0.00,,CLR,0.00,360.00,VWS V14.01,2013-11-15 18:54:00,
2013-11-15 13:59:00,59.9,25.9,30.16,SW,218,0.0,3.0,27,0.00,,CLR,0.00,144.00,VWS V14.01,2013-11-15 18:59:00,
2013-11-15 14:04:00,59.4,26.3,30.16,SSW,192,0.0,0.0,28,0.00,,CLR,0.00,141.00,VWS V14.01,2013-11-15 19:04:00,
2013-11-15 14:09:00,59.0,26.8,30.16,SSW,194,0.0,0.0,29,0.00,,CLR,0.00,183.00,VWS V14.01,2013-11-15 19:09:00,
2013-11-15 14:14:00,58.8,26.6,30.16,SSW,192,0.0,0.0,29,0.00,,CLR,0.00,276.00,VWS V14.01,2013-11-15 19:14:00,
2013-11-15 14:19:00,59.0,26.8,30.16,SSW,196,0.0,1.0,29,0.00,,CLR,0.00,265.00,VWS V14.01,2013-11-15 19:19:00,
2013-11-15 14:24:00,59.0,26.8,30.16,SSW,199,0.0,1.0,29,0.00,,CLR,0.00,132.00,VWS V14.01,2013-11-15 19:24:00,
2013-11-15 14:29:00,58.8,25.8,30.16,South,190,2.0,2.0,28,0.00,,CLR,0.00,127.00,VWS V14.01,2013-11-15 19:29:00,
2013-11-15 14:35:00,58.4,27.1,30.15,SSW,200,0.0,2.0,30,0.00,,CLR,0.00,142.00,VWS V14.01,2013-11-15 19:35:00,
2013-11-15 14:40:00,58.2,26.1,30.15,South,188,0.0,2.0,29,0.00,,CLR,0.00,151.00,VWS V14.01,2013-11-15 19:40:00,
2013-11-15 14:45:00,58.1,26.9,30.15,SSW,207,0.0,3.0,30,0.00,,CLR,0.00,183.00,VWS V14.01,2013-11-15 19:45:00,
2013-11-15 14:50:00,58.5,28.0,30.15,SSW,212,3.0,4.0,31,0.00,,CLR,0.00,251.00,VWS V14.01,2013-11-15 19:50:00,
2013-11-15 14:55:00,59.0,27.6,30.15,SSW,205,3.0,5.0,30,0.00,,CLR,0.00,304.00,VWS V14.01,2013-11-15 19:55:00,
2013-11-15 15:00:00,59.0,26.8,30.15,SW,216,4.0,6.0,29,0.00,,CLR,0.00,186.00,VWS V14.01,2013-11-15 20:00:00,
2013-11-15 15:05:00,59.0,26.0,30.15,South,184,0.0,5.0,28,0.00,,CLR,0.00,125.00,VWS V14.01,2013-11-15 20:05:00,
2013-11-15 15:10:00,59.0,26.0,30.15,SSW,209,0.0,2.0,28,0.00,,CLR,0.00,114.00,VWS V14.01,2013-11-15 20:10:00,
2013-11-15 15:16:00,58.5,26.4,30.15,South,182,0.0,1.0,29,0.00,,CLR,0.00,97.00,VWS V14.01,2013-11-15 20:16:00,
2013-11-15 15:21:00,58.2,26.9,30.15,South,182,0.0,1.0,30,0.00,,CLR,0.00,88.00,VWS V14.01,2013-11-15 20:21:00,
2013-11-15 15:26:00,57.8,25.8,30.15,South,182,0.0,0.0,29,0.00,,CLR,0.00,84.00,VWS V14.01,2013-11-15 20:26:00,
2013-11-15 15:31:00,57.4,27.0,30.15,South,182,0.0,0.0,31,0.00,,CLR,0.00,91.00,VWS V14.01,2013-11-15 20:31:00,
2013-11-15 15:36:00,57.1,26.8,30.15,South,182,0.0,0.0,31,0.00,,CLR,0.00,93.00,VWS V14.01,2013-11-15 20:36:00,
2013-11-15 15:41:00,56.9,26.6,30.15,South,182,0.0,0.0,31,0.00,,CLR,0.00,81.00,VWS V14.01,2013-11-15 20:41:00,
2013-11-15 15:46:00,56.7,27.2,30.15,South,182,0.0,0.0,32,0.00,,CLR,0.00,72.00,VWS V14.01,2013-11-15 20:46:00,
2013-11-15 15:51:00,56.5,27.8,30.15,South,182,0.0,0.0,33,0.00,,CLR,0.00,67.00,VWS V14.01,2013-11-15 20:51:00,
2013-11-15 15:56:00,56.2,28.2,30.15,South,182,0.0,0.0,34,0.00,,CLR,0.00,69.00,VWS V14.01,2013-11-15 20:56:00,
2013-11-15 16:01:00,56.1,28.8,30.15,South,182,0.0,1.0,35,0.00,,CLR,0.00,63.00,VWS V14.01,2013-11-15 21:01:00,
2013-11-15 16:06:00,56.0,28.8,30.15,South,182,0.0,0.0,35,0.00,,CLR,0.00,53.00,VWS V14.01,2013-11-15 21:06:00,
2013-11-15 16:12:00,56.0,28.8,30.15,South,182,0.0,0.0,35,0.00,,CLR,0.00,47.00,VWS V14.01,2013-11-15 21:12:00,
2013-11-15 16:17:00,55.9,29.4,30.15,South,182,0.0,0.0,36,0.00,,CLR,0.00,44.00,VWS V14.01,2013-11-15 21:17:00,
2013-11-15 16:22:00,55.8,29.3,30.15,South,182,0.0,1.0,36,0.00,,CLR,0.00,40.00,VWS V14.01,2013-11-15 21:22:00,
2013-11-15 16:27:00,55.6,28.4,30.15,South,181,0.0,0.0,35,0.00,,CLR,0.00,28.00,VWS V14.01,2013-11-15 21:27:00,
2013-11-15 16:32:00,55.3,28.8,30.15,South,180,0.0,0.0,36,0.00,,CLR,0.00,12.00,VWS V14.01,2013-11-15 21:32:00,
2013-11-15 16:37:00,55.1,28.0,30.15,South,181,0.0,0.0,35,0.00,,CLR,0.00,7.00,VWS V14.01,2013-11-15 21:37:00,
2013-11-15 16:42:00,54.9,27.8,30.15,South,180,0.0,0.0,35,0.00,,CLR,0.00,5.00,VWS V14.01,2013-11-15 21:42:00,
2013-11-15 16:47:00,54.7,28.3,30.15,South,181,0.0,0.0,36,0.00,,CLR,0.00,0.00,VWS V14.01,2013-11-15 21:47:00,
2013-11-15 16:52:00,54.4,28.0,30.15,South,181,0.0,0.0,36,0.00,,CLR,0.00,0.00,VWS V14.01,2013-11-15 21:52:00,
2013-11-15 16:58:00,54.1,26.4,30.15,South,180,0.0,0.0,34,0.00,,CLR,0.00,0.00,VWS V14.01,2013-11-15 21:58:00,
2013-11-15 17:03:00,53.7,26.7,30.15,South,180,0.0,0.0,35,0.00,,CLR,0.00,0.00,VWS V14.01,2013-11-15 22:03:00,
2013-11-15 17:08:00,53.5,27.2,30.15,South,180,0.0,0.0,36,0.00,,CLR,0.00,0.00,VWS V14.01,2013-11-15 22:08:00,
2013-11-15 17:13:00,53.2,27.0,30.15,South,181,0.0,0.0,36,0.00,,CLR,0.00,0.00,VWS V14.01,2013-11-15 22:13:00,
2013-11-15 17:18:00,53.0,26.8,30.15,South,181,0.0,0.0,36,0.00,,CLR,0.00,0.00,VWS V14.01,2013-11-15 22:18:00,
2013-11-15 17:23:00,52.7,26.5,30.15,South,181,0.0,0.0,36,0.00,,CLR,0.00,0.00,VWS V14.01,2013-11-15 22:23:00,
2013-11-15 17:28:00,52.5,27.6,30.15,South,181,0.0,0.0,38,0.00,,CLR,0.00,0.00,VWS V14.01,2013-11-15 22:28:00,
2013-11-15 17:33:00,52.3,27.5,30.15,South,181,0.0,0.0,38,0.00,,CLR,0.00,0.00,VWS V14.01,2013-11-15 22:33:00,
2013-11-15 17:38:00,52.0,26.5,30.15,South,180,0.0,0.0,37,0.00,,CLR,0.00,0.00,VWS V14.01,2013-11-15 22:38:00,
2013-11-15 17:43:00,51.8,27.0,30.15,South,181,0.0,0.0,38,0.00,,CLR,0.00,0.00,VWS V14.01,2013-11-15 22:43:00,
2013-11-15 17:48:00,51.6,26.8,30.15,South,181,0.0,0.0,38,0.00,,CLR,0.00,0.00,VWS V14.01,2013-11-15 22:48:00,
2013-11-15 17:54:00,51.5,26.8,30.16,South,181,0.0,0.0,38,0.00,,CLR,0.00,0.00,VWS V14.01,2013-11-15 22:54:00,
2013-11-15 17:59:00,51.3,27.2,30.15,South,180,0.0,0.0,39,0.00,,CLR,0.00,0.00,VWS V14.01,2013-11-15 22:59:00,
2013-11-15 18:04:00,51.1,27.0,30.15,South,181,0.0,0.0,39,0.00,,CLR,0.00,0.00,VWS V14.01,2013-11-15 23:04:00,
2013-11-15 18:09:00,50.9,26.8,30.15,South,181,0.0,0.0,39,0.00,,CLR,0.00,0.00,VWS V14.01,2013-11-15 23:09:00,
2013-11-15 18:14:00,50.7,27.3,30.15,South,180,0.0,0.0,40,0.00,,CLR,0.00,0.00,VWS V14.01,2013-11-15 23:14:00,
2013-11-15 18:19:00,50.4,27.0,30.15,South,181,0.0,0.0,40,0.00,,CLR,0.00,0.00,VWS V14.01,2013-11-15 23:19:00,
2013-11-15 18:24:00,50.2,26.8,30.15,South,181,0.0,0.0,40,0.00,,CLR,0.00,0.00,VWS V14.01,2013-11-15 23:24:00,
2013-11-15 18:29:00,49.9,27.1,30.15,South,181,0.0,0.0,41,0.00,,CLR,0.00,0.00,VWS V14.01,2013-11-15 23:29:00,
2013-11-15 18:34:00,49.8,27.1,30.15,South,181,0.0,0.0,41,0.00,,CLR,0.00,0.00,VWS V14.01,2013-11-15 23:34:00,
2013-11-15 18:39:00,49.6,26.3,30.15,South,181,0.0,0.0,40,0.00,,CLR,0.00,0.00,VWS V14.01,2013-11-15 23:39:00,
2013-11-15 18:44:00,49.5,26.2,30.16,South,181,0.0,0.0,40,0.00,,CLR,0.00,0.00,VWS V14.01,2013-11-15 23:44:00,
2013-11-15 18:49:00,49.4,26.7,30.16,South,180,0.0,0.0,41,0.00,,CLR,0.00,0.00,VWS V14.01,2013-11-15 23:49:00,
2013-11-15 18:54:00,49.3,26.6,30.16,South,180,0.0,0.0,41,0.00,,CLR,0.00,0.00,VWS V14.01,2013-11-15 23:54:00,
2013-11-15 18:59:00,49.3,27.2,30.16,South,180,0.0,0.0,42,0.00,,CLR,0.00,0.00,VWS V14.01,2013-11-15 23:59:00,
2013-11-15 19:05:00,49.3,27.2,30.16,South,181,0.0,0.0,42,0.00,,CLR,0.00,0.00,VWS V14.01,2013-11-16 00:05:00,
2013-11-15 19:10:00,49.3,27.2,30.16,South,181,0.0,0.0,42,0.00,,CLR,0.00,0.00,VWS V14.01,2013-11-16 00:10:00,
2013-11-15 19:15:00,49.3,27.8,30.16,South,181,0.0,0.0,43,0.00,,CLR,0.00,0.00,VWS V14.01,2013-11-16 00:15:00,
2013-11-15 19:20:00,49.4,28.4,30.16,South,181,0.0,0.0,44,0.00,,CLR,0.00,0.00,VWS V14.01,2013-11-16 00:20:00,
2013-11-15 19:25:00,49.4,28.4,30.16,South,180,0.0,0.0,44,0.00,,CLR,0.00,0.00,VWS V14.01,2013-11-16 00:25:00,
2013-11-15 19:30:00,49.4,28.4,30.16,South,181,0.0,0.0,44,0.00,,CLR,0.00,0.00,VWS V14.01,2013-11-16 00:30:00,
2013-11-15 19:35:00,49.6,28.6,30.16,South,180,0.0,1.0,44,0.00,,CLR,0.00,0.00,VWS V14.01,2013-11-16 00:35:00,
2013-11-15 19:40:00,49.9,28.9,30.17,South,180,0.0,0.0,44,0.00,,CLR,0.00,0.00,VWS V14.01,2013-11-16 00:40:00,
2013-11-15 19:45:00,50.1,29.0,30.17,South,180,0.0,1.0,44,0.00,,CLR,0.00,0.00,VWS V14.01,2013-11-16 00:45:00,
2013-11-15 19:51:00,50.3,29.2,30.17,South,179,0.0,0.0,44,0.00,,CLR,0.00,0.00,VWS V14.01,2013-11-16 00:51:00,
2013-11-15 19:56:00,50.4,29.3,30.17,South,180,0.0,0.0,44,0.00,,CLR,0.00,0.00,VWS V14.01,2013-11-16 00:56:00,
2013-11-15 20:01:00,50.6,29.5,30.17,South,180,0.0,0.0,44,0.00,,CLR,0.00,0.00,VWS V14.01,2013-11-16 01:01:00,
2013-11-15 20:06:00,50.6,29.5,30.17,South,179,0.0,0.0,44,0.00,,CLR,0.00,0.00,VWS V14.01,2013-11-16 01:06:00,
2013-11-15 20:11:00,50.6,30.1,30.17,South,180,0.0,0.0,45,0.00,,CLR,0.00,0.00,VWS V14.01,2013-11-16 01:11:00,
2013-11-15 20:16:00,50.6,30.1,30.17,South,179,0.0,0.0,45,0.00,,CLR,0.00,0.00,VWS V14.01,2013-11-16 01:16:00,
2013-11-15 20:21:00,50.5,30.0,30.16,South,180,0.0,0.0,45,0.00,,CLR,0.00,0.00,VWS V14.01,2013-11-16 01:21:00,
2013-11-15 20:26:00,50.5,30.0,30.17,South,180,0.0,0.0,45,0.00,,CLR,0.00,0.00,VWS V14.01,2013-11-16 01:26:00,
2013-11-15 20:31:00,50.4,29.9,30.16,South,183,0.0,2.0,45,0.00,,CLR,0.00,0.00,VWS V14.01,2013-11-16 01:31:00,
2013-11-15 20:36:00,50.3,29.8,30.16,South,183,0.0,0.0,45,0.00,,CLR,0.00,0.00,VWS V14.01,2013-11-16 01:36:00,
2013-11-15 20:41:00,50.3,29.8,30.16,South,183,0.0,0.0,45,0.00,,CLR,0.00,0.00,VWS V14.01,2013-11-16 01:41:00,
2013-11-15 20:47:00,50.1,29.6,30.17,South,183,0.0,0.0,45,0.00,,CLR,0.00,0.00,VWS V14.01,2013-11-16 01:47:00,
2013-11-15 20:52:00,50.1,29.6,30.16,South,184,0.0,0.0,45,0.00,,CLR,0.00,0.00,VWS V14.01,2013-11-16 01:52:00,
2013-11-15 20:57:00,50.0,29.0,30.17,South,184,0.0,0.0,44,0.00,,CLR,0.00,0.00,VWS V14.01,2013-11-16 01:57:00,
2013-11-15 21:02:00,49.9,28.9,30.17,South,184,0.0,0.0,44,0.00,,CLR,0.00,0.00,VWS V14.01,2013-11-16 02:02:00,
2013-11-15 21:07:00,49.9,29.4,30.17,South,184,0.0,0.0,45,0.00,,CLR,0.00,0.00,VWS V14.01,2013-11-16 02:07:00,
2013-11-15 21:12:00,49.9,30.0,30.17,South,184,0.0,0.0,46,0.00,,CLR,0.00,0.00,VWS V14.01,2013-11-16 02:12:00,
2013-11-15 21:17:00,49.9,29.4,30.18,South,184,0.0,0.0,45,0.00,,CLR,0.00,0.00,VWS V14.01,2013-11-16 02:17:00,
2013-11-15 21:22:00,49.8,29.9,30.18,South,184,0.0,0.0,46,0.00,,CLR,0.00,0.00,VWS V14.01,2013-11-16 02:22:00,
2013-11-15 21:27:00,49.8,29.9,30.18,South,184,0.0,0.0,46,0.00,,CLR,0.00,0.00,VWS V14.01,2013-11-16 02:27:00,
2013-11-15 21:33:00,49.8,29.9,30.18,South,184,0.0,0.0,46,0.00,,CLR,0.00,0.00,VWS V14.01,2013-11-16 02:33:00,
2013-11-15 21:38:00,49.8,29.9,30.18,South,184,0.0,0.0,46,0.00,,CLR,0.00,0.00,VWS V14.01,2013-11-16 02:38:00,
2013-11-15 21:43:00,49.8,29.9,30.18,South,184,0.0,0.0,46,0.00,,CLR,0.00,0.00,VWS V14.01,2013-11-16 02:43:00,
2013-11-15 21:48:00,49.7,29.8,30.18,South,184,0.0,0.0,46,0.00,,CLR,0.00,0.00,VWS V14.01,2013-11-16 02:48:00,
2013-11-15 21:53:00,49.7,29.8,30.18,South,183,0.0,0.0,46,0.00,,CLR,0.00,0.00,VWS V14.01,2013-11-16 02:53:00,
2013-11-15 21:58:00,49.7,30.3,30.18,South,183,0.0,0.0,47,0.00,,CLR,0.00,0.00,VWS V14.01,2013-11-16 02:58:00,
2013-11-15 22:03:00,49.7,30.8,30.19,South,184,0.0,0.0,48,0.00,,CLR,0.00,0.00,VWS V14.01,2013-11-16 03:03:00,
2013-11-15 22:08:00,49.6,31.7,30.19,South,184,0.0,0.0,50,0.00,,CLR,0.00,0.00,VWS V14.01,2013-11-16 03:08:00,
2013-11-15 22:14:00,49.3,31.0,30.19,South,184,0.0,0.0,49,0.00,,CLR,0.00,0.00,VWS V14.01,2013-11-16 03:14:00,
2013-11-15 22:19:00,49.2,30.4,30.20,South,183,0.0,0.0,48,0.00,,CLR,0.00,0.00,VWS V14.01,2013-11-16 03:19:00,
2013-11-15 22:24:00,49.0,30.2,30.20,South,184,0.0,0.0,48,0.00,,CLR,0.00,0.00,VWS V14.01,2013-11-16 03:24:00,
2013-11-15 22:29:00,49.0,30.2,30.20,South,184,0.0,0.0,48,0.00,,CLR,0.00,0.00,VWS V14.01,2013-11-16 03:29:00,
2013-11-15 22:34:00,48.9,30.1,30.20,South,184,0.0,0.0,48,0.00,,CLR,0.00,0.00,VWS V14.01,2013-11-16 03:34:00,
2013-11-15 22:39:00,48.8,30.0,30.20,South,183,0.0,1.0,48,0.00,,CLR,0.00,0.00,VWS V14.01,2013-11-16 03:39:00,
2013-11-15 22:44:00,48.7,31.4,30.21,South,184,0.0,0.0,51,0.00,,CLR,0.00,0.00,VWS V14.01,2013-11-16 03:44:00,
2013-11-15 22:49:00,48.7,31.9,30.21,South,184,0.0,0.0,52,0.00,,CLR,0.00,0.00,VWS V14.01,2013-11-16 03:49:00,
2013-11-15 22:54:00,48.5,32.2,30.21,South,183,0.0,0.0,53,0.00,,CLR,0.00,0.00,VWS V14.01,2013-11-16 03:54:00,
2013-11-15 22:59:00,48.3,32.0,30.21,South,183,0.0,0.0,53,0.00,,CLR,0.00,0.00,VWS V14.01,2013-11-16 03:59:00,
2013-11-15 23:04:00,48.2,32.3,30.22,South,184,0.0,0.0,54,0.00,,CLR,0.00,0.00,VWS V14.01,2013-11-16 04:04:00,
2013-11-15 23:09:00,48.1,33.2,30.22,South,184,0.0,0.0,56,0.00,,CLR,0.00,0.00,VWS V14.01,2013-11-16 04:09:00,
2013-11-15 23:14:00,47.9,32.5,30.22,South,184,0.0,0.0,55,0.00,,CLR,0.00,0.00,VWS V14.01,2013-11-16 04:14:00,
2013-11-15 23:19:00,47.7,33.2,30.22,South,183,0.0,0.0,57,0.00,,CLR,0.00,0.00,VWS V14.01,2013-11-16 04:19:00,
2013-11-15 23:24:00,47.6,33.6,30.22,South,184,0.0,0.0,58,0.00,,CLR,0.00,0.00,VWS V14.01,2013-11-16 04:24:00,
2013-11-15 23:29:00,47.4,31.6,30.22,South,184,0.0,0.0,54,0.00,,CLR,0.00,0.00,VWS V14.01,2013-11-16 04:29:00,
2013-11-15 23:34:00,47.3,31.0,30.22,South,183,0.0,1.0,53,0.00,,CLR,0.00,0.00,VWS V14.01,2013-11-16 04:34:00,
2013-11-15 23:39:00,47.4,33.0,30.22,South,183,0.0,1.0,57,0.00,,CLR,0.00,0.00,VWS V14.01,2013-11-16 04:39:00,
2013-11-15 23:44:00,47.4,33.4,30.22,South,183,0.0,0.0,58,0.00,,CLR,0.00,0.00,VWS V14.01,2013-11-16 04:44:00,
2013-11-15 23:49:00,47.4,33.8,30.22,South,183,0.0,0.0,59,0.00,,CLR,0.00,0.00,VWS V14.01,2013-11-16 04:49:00,
2013-11-15 23:54:00,47.4,33.4,30.21,South,183,0.0,0.0,58,0.00,,CLR,0.00,0.00,VWS V14.01,2013-11-16 04:54:00,
2013-11-15 23:59:00,47.4,34.2,30.21,South,183,0.0,0.0,60,0.00,,CLR,0.00,0.00,VWS V14.01,2013-11-16 04:59:00,